Waarnemingen

Advertentie
Mijn weer
Bournemouth Airport, Groot Brittannië (3862): temperatuur & dauwpunt: 14.01.2019 21:00:00 - 20.01.2019 21:00:00 (GMT)Bournemouth Airport, Groot Brittannië (3862): temperatuur -20cm & temperatuur -100cm: 14.01.2019 21:00:00 - 20.01.2019 21:00:00 (GMT)Bournemouth Airport, Groot Brittannië (3862): windsnelheid & windstoten: 14.01.2019 21:00:00 - 20.01.2019 21:00:00 (GMT)Bournemouth Airport, Groot Brittannië (3862): windrichting: 14.01.2019 21:00:00 - 20.01.2019 21:00:00 (GMT)Bournemouth Airport, Groot Brittannië (3862): luchtdruk: 14.01.2019 21:00:00 - 20.01.2019 21:00:00 (GMT)Bournemouth Airport, Groot Brittannië (3862): zicht: 14.01.2019 21:00:00 - 20.01.2019 21:00:00 (GMT)Bournemouth Airport, Groot Brittannië (3862): Zonneschijnduur: 14.01.2019 21:00:00 - 20.01.2019 21:00:00 (GMT)Bournemouth Airport, Groot Brittannië (3862): neerslag: 14.01.2019 21:00:00 - 20.01.2019 21:00:00 (GMT)
Datum & Tijd tt [°C] td [°C] tt -20cm [°C] tt -100cm [°C] ff [km/u] ff [kn] fx [km/u] fx [kn] dd ppp [hPa] vv [km] sd [min] rr [mm]
20.01.2019 21:00:00 0,8 0,1 - - 4 2 - - NNW 1023,3 4,5 0 0,0
20.01.2019 20:00:00 -0,4 -1,3 - - 8 4 - - NNW 1023,2 4,0 0 0,0
20.01.2019 19:00:00 0,1 -1,3 - - 5 3 - - NNW 1022,4 6 0 0,0
20.01.2019 18:00:00 2,4 -0,1 - - 5 3 - - N 1021,6 10 0 0,0
20.01.2019 17:00:00 3,4 0,1 - - 9 5 - - N 1020,9 10 0 0,0
20.01.2019 16:00:00 4,1 0,1 - - 11 6 - - N 1020,1 13 60 0,0
20.01.2019 15:00:00 4,3 0,2 - - 9 5 - - N 1019,4 10 60 0,0
20.01.2019 14:00:00 4,0 -0,5 - - 11 6 - - NNO 1018,9 10 60 0,0
20.01.2019 13:00:00 3,5 -0,2 - - 11 6 - - NNO 1018,6 10 60 0,0
20.01.2019 12:00:00 2,3 -0,3 - - 13 7 - - NO 1018,6 10 12 0,0
20.01.2019 11:00:00 2,0 0,0 - - 16 9 - - NO 1018,2 10 0 0,0
20.01.2019 10:00:00 3,0 1,1 - - 9 5 - - NNO 1017,4 10 0 0,0
20.01.2019 09:00:00 1,8 0,9 6,4 7,7 8 4 - - N 1016,4 10 0 0,0
20.01.2019 08:00:00 0,5 -0,4 - - 8 4 - - - 1015,3 10 0 0,0
20.01.2019 07:00:00 1,6 0,0 - - 8 4 - - NO 1014,1 16 0 0,0
20.01.2019 06:00:00 3,1 1,3 - - 11 6 - - NO 1013,4 16 0 0,0
20.01.2019 05:00:00 3,7 2,5 - - 9 5 - - NNO 1012,9 8 0 0,0
20.01.2019 04:00:00 4,0 2,9 - - 9 5 - - NO 1012,5 8 0 0,0
20.01.2019 03:00:00 4,2 2,9 - - 13 7 - - ONO 1012,0 9 0 0,0
20.01.2019 02:00:00 4,4 3,3 - - 13 7 - - ONO 1011,6 6 0 0,0
20.01.2019 01:00:00 4,6 3,7 - - 11 6 - - ONO 1011,1 5 0 0,0
20.01.2019 00:00:00 4,8 3,8 - - 15 8 - - ONO 1010,6 6 - 0,0
19.01.2019 23:00:00 5,1 4,1 - - 13 7 - - ONO 1009,9 8 0 0,0
19.01.2019 22:00:00 5,3 4,4 - - 11 6 - - ONO 1009,4 8 0 0,0
19.01.2019 21:00:00 5,5 4,8 - - 11 6 - - O 1008,8 8 0 0,0
19.01.2019 20:00:00 5,8 5,1 - - 9 5 - - O 1008,2 9 0 0,2
19.01.2019 19:00:00 6,0 5,0 - - 11 6 - - O 1007,6 10 0 0,0
19.01.2019 18:00:00 6,0 5,3 - - 9 5 - - ONO 1007,4 9 0 0,2
19.01.2019 17:00:00 6,4 5,5 - - 8 4 - - O 1006,9 8 0 0,0
19.01.2019 16:00:00 6,4 5,4 - - 11 6 - - OZO 1006,5 14 0 0,0
19.01.2019 15:00:00 6,6 5,6 - - 15 8 - - ZO 1006,2 10 0 0,4
19.01.2019 14:00:00 6,6 5,7 - - 15 8 - - ZO 1006,3 9 0 1,0
19.01.2019 13:00:00 6,7 5,6 - - 16 9 - - ZO 1006,6 13 0 0,0
19.01.2019 12:00:00 6,7 5,7 - - 18 10 - - ZO 1007,1 5 0 0,8
19.01.2019 11:00:00 6,3 5,5 - - 16 9 - - ZO 1007,3 5 0 2,2
19.01.2019 10:00:00 6,4 5,5 - - 18 10 - - ZO 1007,2 4,5 0 2,2
19.01.2019 09:00:00 6,4 5,4 6,0 7,7 18 10 - - ZZO 1007,1 5 0 0,6
19.01.2019 08:00:00 6,3 5,6 - - 18 10 - - ZO 1006,7 8 0 0,2
19.01.2019 07:00:00 6,3 5,4 - - 21 11 - - ZZO 1006,8 7 0 1,0
19.01.2019 06:00:00 6,5 5,5 - - 21 11 - - ZZO 1007,0 4,3 0 0,4
19.01.2019 05:00:00 6,5 5,3 - - 21 11 - - ZZO 1007,3 10 0 0,0
19.01.2019 04:00:00 6,1 4,6 - - 18 10 - - ZZO 1007,9 15 0 0,0
19.01.2019 03:00:00 5,8 4,2 - - 21 11 - - ZZO 1008,5 20 0 0,2
19.01.2019 02:00:00 5,7 4,5 - - 22 12 - - ZZO 1008,9 1,9 0 0,8
19.01.2019 01:00:00 5,9 4,6 - - 21 11 - - Z 1009,3 4,6 0 0,6
19.01.2019 00:00:00 5,6 4,8 - - 21 11 - - Z 1010,0 7 - 0,6
18.01.2019 23:00:00 5,5 3,3 - - 22 12 - - Z 1010,4 9 0 0,8
18.01.2019 22:00:00 6,2 2,2 - - 26 14 - - Z 1010,6 10 0 0,4
18.01.2019 21:00:00 6,4 2,0 - - 22 12 - - Z 1010,9 10 0 0,2
18.01.2019 20:00:00 6,7 0,7 - - 24 13 - - Z 1011,2 21 0 0,0
18.01.2019 19:00:00 6,8 -1,5 - - 26 14 - - Z 1011,5 10 0 0,0
18.01.2019 18:00:00 6,4 -2,4 - - 26 14 - - ZZO 1011,7 10 0 0,0
18.01.2019 17:00:00 6,3 -2,2 - - 24 13 - - ZZO 1012,3 10 0 0,0
18.01.2019 16:00:00 6,0 -3,2 - - 22 12 - - Z 1012,9 10 0 0,0
18.01.2019 15:00:00 6,3 -2,2 - - 28 15 - - Z 1013,3 10 6 0,0
18.01.2019 14:00:00 6,6 -1,7 - - 24 13 - - Z 1014,0 40 0 0,0
18.01.2019 13:00:00 6,3 -2,3 - - 28 15 - - Z 1014,6 10 0 0,0
18.01.2019 12:00:00 6,6 -1,4 - - 28 15 - - Z 1015,3 10 0 0,0
18.01.2019 11:00:00 6,4 -0,9 - - 26 14 - - Z 1016,1 40 6 0,0
18.01.2019 10:00:00 6,2 -0,3 - - 22 12 - - Z 1016,1 10 6 0,0
18.01.2019 09:00:00 5,7 0,6 6,0 8,0 22 12 - - Z 1016,2 35 0 0,0
18.01.2019 08:00:00 5,0 -0,4 - - 15 8 - - Z 1016,3 10 0 0,0
18.01.2019 07:00:00 -0,8 -1,7 - - 4 2 - - OZO 1016,7 10 0 0,0
18.01.2019 06:00:00 -1,7 -2,6 - - 2 1 - - OZO 1017,1 16 0 0,0
18.01.2019 05:00:00 -2,1 -2,8 - - 5 3 - - NO 1017,7 15 0 0,0
18.01.2019 04:00:00 -2,5 -3,2 - - 5 3 - - N 1018,3 14 0 0,0
18.01.2019 03:00:00 -2,3 -3,1 - - 5 3 - - ONO 1019,0 15 0 0,0
18.01.2019 02:00:00 -2,3 -2,9 - - 2 1 - - N 1019,6 15 0 0,0
18.01.2019 01:00:00 -2,4 -2,9 - - 2 1 - - O 1019,6 18 0 0,0
18.01.2019 00:00:00 -3,1 -4,1 - - 4 2 - - NO 1019,8 14 - 0,0
17.01.2019 23:00:00 -2,6 -4,0 - - 2 1 - - WNW 1019,9 16 0 0,0
17.01.2019 22:00:00 -2,6 -3,9 - - 5 3 - - W 1019,8 10 0 0,0
17.01.2019 21:00:00 -1,8 -3,1 - - 4 2 - - NW 1019,4 17 0 0,0
17.01.2019 20:00:00 -0,6 -2,4 - - 2 1 - - - 1019,2 10 0 0,0
17.01.2019 19:00:00 -1,1 -3,3 - - 5 3 - - - 1018,9 10 0 0,0
17.01.2019 18:00:00 -0,4 -4,3 - - 4 2 - - - 1018,3 10 0 0,0
17.01.2019 17:00:00 1,9 -3,7 - - 5 3 - - NW 1017,8 10 0 0,0
17.01.2019 16:00:00 3,8 -4,0 - - 13 7 - - NW 1017,0 10 42 0,0
17.01.2019 15:00:00 5,4 -4,0 - - 15 8 - - NNW 1016,2 10 60 0,0
17.01.2019 14:00:00 5,5 -4,1 - - 22 12 - - NNW 1015,8 10 60 0,0
17.01.2019 13:00:00 5,4 -3,0 - - 26 14 - - NNW 1015,5 55 60 0,0
17.01.2019 12:00:00 4,9 -2,2 - - 22 12 - - N 1015,0 65 60 0,0
17.01.2019 11:00:00 4,4 -0,5 - - 24 13 - - N 1014,2 10 60 0,0
17.01.2019 10:00:00 4,4 -0,1 - - 24 13 - - N 1013,0 60 48 0,0
17.01.2019 09:00:00 3,6 1,5 7,0 8,0 18 10 - - NNW 1011,4 10 0 0,0
17.01.2019 08:00:00 3,4 1,7 - - 16 9 - - NW 1009,6 19 0 0,0
17.01.2019 07:00:00 3,1 1,6 - - 15 8 - - WNW 1008,6 30 0 0,0
17.01.2019 06:00:00 3,5 1,9 - - 18 10 - - NW 1007,7 40 0 0,0
17.01.2019 05:00:00 3,3 1,6 - - 21 11 - - WNW 1006,9 45 0 0,0
17.01.2019 04:00:00 4,0 2,2 - - 21 11 - - NW 1006,1 35 0 0,0
17.01.2019 03:00:00 4,9 3,0 - - 24 13 - - NW 1004,9 30 0 0,0
17.01.2019 02:00:00 4,2 2,9 - - 18 10 - - W 1004,0 35 0 0,0
17.01.2019 01:00:00 2,5 1,5 - - 11 6 - - W 1003,2 35 0 0,0
17.01.2019 00:00:00 2,8 1,8 - - 11 6 - - W 1003,2 24 - 0,0
16.01.2019 23:00:00 4,0 2,3 - - 13 7 - - W 1003,5 19 0 0,2
16.01.2019 22:00:00 4,1 3,7 - - 4 2 - - ZW 1003,9 10 0 0,0
16.01.2019 21:00:00 4,6 3,7 - - 2 1 - - WZW 1004,5 10 0 0,0
16.01.2019 20:00:00 4,1 2,9 - - 9 5 - - W 1004,5 10 0 0,0
16.01.2019 19:00:00 4,5 3,6 - - 8 4 - - W 1004,6 10 0 0,0
16.01.2019 18:00:00 5,1 4,0 - - 9 5 - - W 1004,6 28 0 0,0
16.01.2019 17:00:00 5,9 4,7 - - 11 6 - - WNW 1004,3 10 0 0,0
16.01.2019 16:00:00 6,7 5,6 - - 15 8 - - NW 1004,0 25 0 0,2
16.01.2019 15:00:00 7,1 6,1 - - 22 12 52 28 WNW 1003,5 10 0 1,0
16.01.2019 14:00:00 10,3 8,9 - - 26 14 - - WZW 1003,0 10 0 0,0
16.01.2019 13:00:00 10,4 9,5 - - 18 10 - - WZW 1003,9 10 0 1,6
16.01.2019 12:00:00 9,7 9,0 - - 21 11 - - ZW 1004,7 2,0 0 0,8
16.01.2019 11:00:00 9,6 8,6 - - 24 13 - - ZW 1005,7 4,0 0 0,0
16.01.2019 10:00:00 9,5 8,2 - - 22 12 - - ZW 1006,6 10 0 0,0
16.01.2019 09:00:00 9,3 8,4 7,2 7,9 22 12 - - ZW 1007,2 10 0 0,0
16.01.2019 08:00:00 8,9 8,1 - - 26 14 - - ZW 1007,6 18 0 0,6
16.01.2019 07:00:00 8,8 8,2 - - 21 11 - - ZW 1008,2 3,2 0 0,4
16.01.2019 06:00:00 8,7 8,2 - - 21 11 - - ZW 1008,9 2,1 0 0,4
16.01.2019 05:00:00 8,7 8,3 - - 18 10 - - ZW 1009,9 3,9 0 0,6
16.01.2019 04:00:00 8,6 8,1 - - 18 10 - - ZW 1010,8 3,4 0 0,4
16.01.2019 03:00:00 8,6 7,9 - - 18 10 - - ZW 1011,9 3,2 0 0,6
16.01.2019 02:00:00 8,5 7,8 - - 18 10 - - ZW 1012,8 3,6 0 0,2
16.01.2019 01:00:00 8,7 7,2 - - 18 10 - - ZW 1013,6 25 0 0,2
16.01.2019 00:00:00 8,5 7,8 - - 18 10 - - ZW 1014,3 6 - 0,2
15.01.2019 23:00:00 8,9 7,5 - - 13 7 - - ZW 1015,2 20 0 0,0
15.01.2019 22:00:00 8,4 7,7 - - 11 6 - - WZW 1016,0 19 0 0,0
15.01.2019 21:00:00 8,3 7,3 - - 13 7 - - WZW 1016,5 6 0 0,0
15.01.2019 20:00:00 8,7 6,7 - - 9 5 - - ZW 1016,9 21 0 0,0
15.01.2019 19:00:00 8,7 6,4 - - 11 6 - - WZW 1017,7 24 0 0,0
15.01.2019 18:00:00 8,7 6,8 - - 16 9 - - WZW 1018,0 10 0 0,0
15.01.2019 17:00:00 9,2 5,8 - - 13 7 - - WZW 1018,5 24 0 0,0
15.01.2019 16:00:00 9,4 5,8 - - 16 9 - - W 1018,8 10 0 0,0
15.01.2019 15:00:00 9,6 6,1 - - 18 10 - - WZW 1019,2 10 0 0,0
15.01.2019 14:00:00 9,6 5,9 - - 21 11 - - W 1019,8 10 0 0,0
15.01.2019 13:00:00 9,5 6,1 - - 13 7 - - WZW 1020,4 10 0 0,0
15.01.2019 12:00:00 9,3 6,6 - - 16 9 - - W 1021,1 10 0 0,0
15.01.2019 11:00:00 9,3 6,6 - - 11 6 - - WZW 1021,9 22 0 0,0
15.01.2019 10:00:00 8,8 6,0 - - 15 8 - - ZW 1022,2 10 0 0,0
15.01.2019 09:00:00 8,1 5,4 6,9 7,7 11 6 - - WZW 1022,4 10 0 0,0
15.01.2019 08:00:00 7,8 4,9 - - 11 6 - - WZW 1022,3 10 0 0,0
15.01.2019 07:00:00 7,6 4,9 - - 16 9 - - WZW 1022,3 35 0 0,0
15.01.2019 06:00:00 7,3 4,2 - - 9 5 - - WZW 1022,5 30 0 0,0
15.01.2019 05:00:00 7,2 3,8 - - 9 5 - - WZW 1022,8 30 0 0,0
15.01.2019 04:00:00 6,9 3,4 - - 13 7 - - W 1023,2 23 0 0,0
15.01.2019 03:00:00 5,9 2,7 - - 13 7 - - W 1023,6 21 0 0,0
15.01.2019 02:00:00 4,7 1,7 - - 2 1 - - WZW 1024,0 21 0 0,0
15.01.2019 01:00:00 4,1 2,0 - - 5 3 - - WZW 1024,2 35 0 0,0
15.01.2019 00:00:00 3,8 1,9 - - 9 5 - - W 1024,4 17 - 0,0
14.01.2019 23:00:00 4,7 2,8 - - 13 7 - - W 1024,8 21 0 0,0
14.01.2019 22:00:00 3,2 0,9 - - 8 4 - - W 1024,7 10 0 0,0
14.01.2019 21:00:00 4,9 2,4 - - 8 4 - - W 1024,5 10 0 0,0

tt = temperatuur
td = dauwpunt
tt -20cm = temperatuur -20cm
tt -100cm = temperatuur -100cm
ff = windsnelheid
fx = windstoten
dd = windrichting
ppp = luchtdruk
vv = zicht
sd = Zonneschijnduur
rr = neerslag

Weerstations in de omgeving